Tracking 29892 objects as of 21-Nov-2024
HD Live streaming from Space Station
objects crossing your sky now

STARLINK-5498

Track STARLINK-5498 now!
10-day predictions
STARLINK-5498 is classified as:


NORAD ID: 55633
Int'l Code: 2023-021F
Perigee: 577.1 km
Apogee: 581.2 km
Inclination: 70.0 °
Period: 96.1 minutes
Semi major axis: 6950 km
RCS: Unknown
Launch date: February 17, 2023
Source: United States (US)
Launch site: AIR FORCE WESTERN TEST RANGE (AFWTR)
Your satellite tracking list
Your tracking list is empty




NASA's NSSDC Master Catalog

Two Line Element Set (TLE):
1 55633U 23021F   24325.39375706  .00000222  00000-0  26428-4 0  9998
2 55633  69.9987 320.3061 0002942 267.3199  92.7623 14.98333191 97255
Source of the keplerian elements: AFSPC